Location: Dodge City Co - Operative Exchange Grain Elevator Number 8
(38.1218°N, 99.7124°W)
Time: 06:58:47
(UTC+00:00)

SJ-12 - Pass Details

Date: 03 March 2021
Orbit: 567 x 585 km, 97.7° (Epoch: 12 April)

Event Time Altitude Azimuth Distance (km) Brightness Sun altitude
Rises 12:02:39 0° 5° (N) 2,785 7.5 -13.5°
Reaches altitude 10° 12:04:51 10° 360° (N) 1,880 6.6 -13.1°
Maximum altitude 12:08:46 47° 286° (WNW) 761 4.1 -12.3°
Drops below altitude 10° 12:12:38 10° 213° (SSW) 1,860 6.2 -11.6°
Sets 12:14:48 0° 207° (SSW) 2,752 7.1 -11.1°
